Home   Weather   Grindavík   Past weeks
Flag for Iceland

Past Weather in Grindavík, Iceland — Yesterday and Last 2 Weeks

Now
48 °F

Light rain. Mostly cloudy.


Feels Like: 44 °F
Forecast: N/A
Wind: 10 mph from Northeast

Location: Keflavikurflugvollur

Current Time: Aug 4, 2020 at 11:46:30 pm

Latest Report: Aug 4, 2020 at 11:01 pm


Visibility: N/A

Pressure: 29.15 "Hg

Humidity: 100%

Dew Point: 48 °F

Location of GrindavíkLocation

Past Weather in Grindavík — Graph

°F

Grindavík Temperature Yesterday

Maximum temperature yesterday: 50 °F (at 9:00 am)
Minimum temperature yesterday: 46 °F (at 12:00 am)
Average temperature yesterday: 48 °F

High & Low Weather Summary for the Past Weeks

 TemperatureHumidityPressure
High57 °F (Jul 22, 3:30 pm)100% (Jul 28, 7:30 am)30.07 "Hg (Jul 28, 7:30 am)
Low41 °F (Jul 25, 3:00 am)54% (Jul 21, 12:00 pm)29.06 "Hg (Aug 1, 3:30 am)
Average50 °F84%29.71 "Hg
* Reported Jul 20 10:00 pm — Aug 4 10:00 pm, Grindavík. Weather by CustomWeather, © 2020

Note: Actual official high and low records may vary slightly from our data, if they occured in-between our weather recording intervals... More about our weather records

Grindavík Weather History for the Previous 24 Hours

Scroll right to see more
 ConditionsComfort  
Time TempWeatherWind HumidityBarometerVisibility
10:00 pm
Tue, Aug 4
48 °FLight rain. Mostly cloudy.8 mph100%29.18 "HgN/A
9:30 pm48 °FLight rain. Mostly cloudy.10 mph100%29.18 "HgN/A
9:00 pm48 °FLight rain. Mostly cloudy.12 mph100%29.21 "HgN/A
8:30 pm48 °FLight rain. More clouds than sun.12 mph100%29.21 "HgN/A
8:00 pm48 °FLight rain. Mostly cloudy.12 mph100%29.21 "HgN/A
7:30 pm50 °FLight rain. Mostly cloudy.10 mph94%29.21 "HgN/A
7:00 pm50 °FLight rain. Mostly cloudy.10 mph94%29.24 "HgN/A
6:30 pm50 °FLight rain. Mostly cloudy.8 mph94%29.24 "HgN/A
6:00 pm50 °FLight rain. Cloudy.7 mph94%29.24 "HgN/A
5:30 pm50 °FLight rain. Broken clouds.6 mph94%29.24 "HgN/A
5:00 pm50 °FLight rain. More clouds than sun.6 mph94%29.27 "HgN/A
4:30 pm50 °FLight rain. Cloudy.6 mph94%29.27 "HgN/A
4:08 pm50 °FLight rain. Broken clouds.7 mph94%29.27 "HgN/A
3:30 pm50 °FLight rain. Broken clouds.7 mph88%29.27 "HgN/A
3:01 pm50 °FSprinkles. Broken clouds.6 mph94%29.30 "HgN/A
2:30 pm52 °FSprinkles. Broken clouds.7 mph82%29.30 "HgN/A
2:02 pm52 °FPartly sunny.12 mph77%29.30 "HgN/A
1:31 pm52 °FDrizzle. Broken clouds.8 mph82%29.30 "HgN/A
1:00 pm50 °FScattered showers. Broken clouds.9 mph88%29.30 "HgN/A
12:30 pm50 °FScattered showers. Partly sunny.7 mph88%29.33 "HgN/A
12:00 pm48 °FScattered showers. Mostly cloudy.8 mph94%29.33 "HgN/A
11:30 am48 °FScattered showers. Mostly cloudy.8 mph94%29.33 "HgN/A
11:00 am48 °FDrizzle. Cloudy.9 mph100%29.33 "Hg3 mi
10:30 am48 °FDrizzle. Partly sunny.7 mph94%29.33 "HgN/A
10:00 am48 °FDrizzle. Broken clouds.6 mph100%29.36 "HgN/A
9:30 am48 °FDrizzle. Fog.6 mph100%29.36 "Hg2 mi
9:00 am48 °FDrizzle. Fog.3 mph100%29.36 "Hg2 mi
8:30 am48 °FDrizzle. Fog.5 mph100%29.36 "Hg2 mi
8:00 am48 °FDrizzle. Fog.5 mph94%29.36 "Hg2 mi
7:30 am46 °FFog.5 mph100%29.36 "Hg5 mi
7:00 am46 °FDrizzle. Fog.5 mph100%29.39 "Hg4 mi
6:30 am46 °FDrizzle. Fog.5 mph100%29.39 "Hg4 mi
6:00 am45 °FFog.3 mph100%29.39 "Hg2 mi
5:30 am45 °FFog.No wind100%29.39 "Hg2 mi
5:00 am45 °FDrizzle. Fog.1 mph100%29.39 "Hg1 mi
4:30 am45 °FDrizzle. Fog.5 mph100%29.42 "Hg1 mi
4:00 am45 °FFog.3 mph100%29.42 "Hg1 mi
3:30 am45 °FFog.2 mph100%29.42 "Hg1 mi
3:00 am45 °FFog.1 mph100%29.42 "Hg2 mi
2:30 am45 °FLow clouds.2 mph100%29.45 "HgN/A
2:00 am45 °FFog.1 mph100%29.45 "Hg5 mi
1:30 am45 °FLow clouds.3 mph100%29.45 "HgN/A
1:00 am45 °FLow clouds.3 mph100%29.47 "HgN/A
12:30 am45 °FDrizzle. Low clouds.5 mph100%29.47 "HgN/A
12:00 am45 °FDrizzle. Low clouds.3 mph100%29.47 "HgN/A
11:30 pm
Mon, Aug 3
46 °FLow clouds.1 mph93%29.47 "HgN/A
11:00 pm46 °FLow clouds.1 mph93%29.47 "HgN/A
Weather by CustomWeather, © 2020

See weather overview